Powrót do katalogu

OPS 9454

AktywnyMilitariaMEO
NORAD 10941·PAYLOAD·🇺🇸 United States

Wystrzelony Jun 10, 1978 z Cape Canaveral Space Force Station

Loading…

Następne Przeloty (najbliższe 24 godziny)

TLE

ŚwieżeSource: Mike McCants

Epoka: Sep 15, 2026, 18:04 UTC

1 10941U 78058A   26258.75332926  .00000000  00000-0  00000-0 0    06
2 10941  10.6700  17.1086 1501201  67.3268 307.8434  1.00107171  4580

Śledź OPS 9454 w czasie rzeczywistym z AllMySat

Download on the App Store